Showing default

DODGE 1, 2867

Orbit data source: Space-Track

DODGE 1, 2867 is a payload satellite owned by USN NAVAIR (US) in GEO that was launched on Sat, 01 Jul 1967 UTC via a TITAN IIIC launch vehicle from the Air Force Eastern Test Range (AFETR). Payload-class satellites include a variety of spacecraft equipped with specific instruments for various scientific and technological missions. These include communications satellites like Starlink; space stations such as the ISS; scientific satellites like the Hubble; Earth observation satellites from companies like Planet Labs, Umbra, and HawkEye 360; GPS; miniature CubeSats for education and research; and military/defense satellites.

Not visible in the next 10 days
Identifier
2867, 1967-066F
Orbit
GEO
Country
Flag of USUS
Related business
Manufacturer
APL
Mission
Spacecraft
Bus & Motor
DODGE, Unknown motor
Mass
195 kg wet, 195 kg dry
Launch date (UTC)
1967-07-01 (59 years ago)
Launch vehicle
TITAN IIIC
Launch site
Air Force Eastern Test Range (AFETR)
Object type
Payload
Rocket body
Debris
Shape & HBR
Unknown
Radar Cross Section
Large (>1 m²)

Expand to show TLE details & history
Last TLE update: 20 hours ago

TLE from 20 hours ago
0 DODGE 1
1 02867U 67066F   26175.17266833 -.00000104  00000-0  00000-0 0  9991
2 02867   2.5109  97.4985 0052468 193.9598 138.7055  1.09168342133452
Epoch: 2026-06-24T04:08Z
TLE epoch observation values (Epoch: 2026-06-24T04:08:38.543Z)
Latitude
-1.11899°
Longitude
96.0937°
Altitude
33,621.52 km
Speed
3.151 km/s
True Right ascension
04h 42m 21s
True Declination
-1° 07' 04"
Sunlit
Object was in daylight at epoch
Visualization orbit readout
Latitude
Unknown
Longitude
Unknown
Altitude
Unknown
Speed
Unknown
Apparent Right ascension
Unknown
Apparent Declination
Unknown
Sunlit
N/A
Visualization observer readout
Local Sidereal Time
11:47:44
Azimuth
Unknown
Elevation
Unknown
Doppler factor
Unknown
Orbital elements
Apogee altitude
33,673.691 km
Perigee altitude
33,255.597 km
Semi-major axis
39,842.781 km
Eccentricity
0.00525
Inclination
2.5109°
RAAN
97.4985°
Arg. of periapsis
193.9598°
True anomaly
139.10033°
Mean anomaly
138.7055°
Eccentric anomaly
138.90311°
Mean motion
0.27291 °/min
Orbital period
1,319.12 mins
BSTAR
0
Loading maneuver chart data...
Computing Atmospheric mass density...
Loading historical data...
Loading historical data...
Loading historical data...
Loading historical data...
Loading historical data...
Loading historical data...
Loading historical data...

Documentation

Showing up to 5 results
|